Regional Weather Roundup
Issued by NWS

Home | Current Version | Previous Version | Graphics & Text | Print | Product List | Glossary On
Versions: 1 2 3 4 5 6 7 8 9 10 11 12 13 14 15 16 17 18 19 20 21 22 23 24 25 26 27 28 29 30 31 32 33 34 35 36 37 38 39 40 41 42 43 44 45 46 47 48 49 50
000
ASUS43 KDMX 312207
RWRIA

WEATHER ROUNDUP FOR IOWA
NATIONAL WEATHER SERVICE DES MOINES IA
500 PM CDT THU JUL 31 2014

NOTE: "FAIR" INDICATES FEW OR NO CLOUDS BELOW 12,000 FEET WITH NO
SIGNIFICANT WEATHER AND/OR OBSTRUCTIONS TO VISIBILITY.

* - THESE STATIONS ARE NOT NWS STATIONS...THUS NOT UNDER NWS
QUALITY CONTROL.  THEY ALSO DO NOT REPORT WEATHER SUCH
AS PRECIPITATION OR FOG.

IAZ001>003-012>014-020>022-031>034-043>046-312300-
   NORTHWEST IOWA

CITY           SKY/WX    TMP DP  RH WIND       PRES   REMARKS
CARROLL *      PTSUNNY   72  57  60 W5        30.08S
CHEROKEE *     MOSUNNY   75  57  53 SW6       30.06F
DENISON *      PTSUNNY   68  64  88 E3        30.06F
LE MARS *      MOSUNNY   75  59  57 SW6       30.07F
ORANGE CITY *  SUNNY     75  57  53 SW6       30.07F
SHELDON *      MOSUNNY   75  63  64 W6        30.05F
SIOUX CITY     CLOUDY    74  63  68 E8        30.05F
SPENCER        MOSUNNY   79  59  50 S6        30.05F HX  80
STORM LAKE *   SUNNY     75  61  60 SW7       30.08F
$$

IAZ055>058-069>071-079>083-090>094-312300-
   SOUTHWEST IOWA

CITY           SKY/WX    TMP DP  RH WIND       PRES   REMARKS
ATLANTIC *     CLOUDY    79  57  47 CALM      30.07R HX  80
AUDUBON *      LGT RAIN  73  66  78 CALM      30.09F
CLARINDA *     SUNNY     82  57  42 VRB5      30.06F HX  82
COUNCIL BLFS * SUNNY     82  59  44 E9        30.04S HX  82
CRESTON *      MOSUNNY   79  55  44 W5        30.07S
HARLAN  *      MOSUNNY   75  63  64 E8        30.10F
LAMONI         MOSUNNY   80  53  39 CALM      30.07F HX  80
RED OAK *      MOSUNNY   81  55  41 S5        30.06S HX  80
SHENANDOAH *   SUNNY     82  57  42 S6        30.05F HX  82
$$

IAZ047>049-059>061-072>074-084-312300-
   CENTRAL IOWA

CITY           SKY/WX    TMP DP  RH WIND       PRES   REMARKS
AMES           MOSUNNY   79  56  45 SW5       30.05F HX  80
ANKENY *       SUNNY     81  54  39 NW9       30.05S HX  80
CHARITON *     SUNNY     81  55  41 W8        30.06F HX  80
DES MOINES     PTSUNNY   81  54  39 W6        30.04F HX  81
GRINNELL*      PTSUNNY   79  57  47 SW5       30.06F HX  80
KNOXVILLE *    MOSUNNY   79  57  47 VRB3      30.05F HX  80
MARSHALLTOWN   MOSUNNY   79  58  48 W3        30.05F HX  80
PELLA *        SUNNY     82  57  42 W6        30.06F HX  82
PERRY *          N/A     75  61  60 W12       30.07R
$$

IAZ004>006-015-016-023>025-035-036-312300-
   NORTH CENTRAL IOWA

CITY           SKY/WX    TMP DP  RH WIND       PRES   REMARKS
ALGONA *       SUNNY     79  54  41 VRB3      30.05F
CLARION *      MOSUNNY   81  55  41 W7        30.05F HX  80
ESTHERVILLE    PTSUNNY   78  56  46 CALM      30.04F
FORT DODGE *   MOSUNNY   79  57  47 W6        30.06F HX  80
MASON CITY     MOSUNNY   80  56  43 W12       30.06F HX  80
FOREST CITY *  SUNNY     79  55  44 W5        30.04F
IOWA FALLS *   PTSUNNY   79  55  44 W6        30.06S
$$

IAZ007>011-017>019-026>030-037>042-050>054-066-312300-
   NORTHEAST IOWA

CITY           SKY/WX    TMP DP  RH WIND       PRES   REMARKS
CEDAR RAPIDS   MOSUNNY   78  60  53 W6        30.04F
CHARLES CITY * MOSUNNY   79  59  50 NW8       30.05S HX  80
CLINTON *      SUNNY     79  59  50 NW7       30.07F HX  80
DECORAH *      SUNNY     77  54  44 W7        30.03F
DUBUQUE        MOSUNNY   78  58  49 W8        30.05S
MONTICELLO *   SUNNY     81  59  47 W10       30.04S HX  81
OELWEIN *      SUNNY     79  55  44 W9        30.05F
WATERLOO       SUNNY     81  53  37 NW9       30.03F HX  80
$$

IAZ064-065-067-068-078-312300-
   EAST CENTRAL IOWA

CITY           SKY/WX    TMP DP  RH WIND       PRES   REMARKS
DAVENPORT      MOSUNNY   80  60  50 W9        30.05F HX  81
IOWA CITY      MOSUNNY   80  60  50 SW7       30.05F HX  81
MT. PLEASANT * SUNNY     81  57  44 SW3       30.06F HX  81
MUSCATINE *    MOSUNNY   84  59  42 W8        30.04F HX  84
QUAD CITIES    MOSUNNY   83  59  44 NW8       30.04S HX  83
$$

IAZ062-063-075>077-085>089-095>099-312300-
   SOUTHEAST IOWA

CITY           SKY/WX    TMP DP  RH WIND       PRES   REMARKS
BURLINGTON     MOSUNNY   80  62  54 VRB3      30.05F HX  81
FAIRFIELD *    MOSUNNY   79  59  50 CALM      30.06F HX  80
FORT MADISON * SUNNY     82  61  47 W3        30.07F HX  83
KEOKUK *       SUNNY     81  59  47 CALM      30.06S HX  81
OSKALOOSA *      N/A     79  59  50 W5        30.06F HX  80
CENTERVILLE *  SUNNY     79  57  47 NW5       30.09S HX  80
OTTUMWA        SUNNY     80  58  46 W7        30.06S HX  80
WASHINGTON *   MOSUNNY   81  59  47 W7        30.06S HX  81
$$

ABBREVIATIONS USED IN REMARKS
   TC - TEMPERATURES IN CELSIUS
  WCI - WIND CHILL INDEX
   HX - HEAT INDEX
  VSB - VISIBILITY
$$




USA.gov is the U.S. government's official web portal to all federal, state and local government web resources and services.